Location: Siratepeler Tepesi
(39.1042°N, 32.0781°E)
Time: 10:15:57
(UTC+00:00)

ACS3 Solar Sail - Visible Passes

Search period start: 11 June 2026 00:00
Search period end: 21 June 2026 00:00
Orbit: 873 x 957 km, 97.2° (Epoch: 10 June)

Date Brightness Start Highest point End Pass type
(mag) Time Alt. Az. Time Alt. Az. Time Alt. Az.
11 Jun 1.7 22:01:05 10° NNE 22:06:47 63° E 22:06:59 62° ESE visible
11 Jun 3.4 23:44:41 10° NNW 23:48:27 18° WNW 23:50:21 16° W visible
12 Jun 1.5 22:08:02 10° NNE 22:13:48 74° ESE 22:14:05 72° SE visible
12 Jun 3.6 23:52:04 10° NNW 23:55:21 16° WNW 23:57:27 13° W visible
13 Jun 1.5 22:15:00 10° NNE 22:20:47 85° ESE 22:21:11 78° S visible
13 Jun 3.7 23:59:33 10° NNW 00:02:13 13° WNW 00:04:33 11° W visible
14 Jun 3.7 20:42:39 10° ENE 20:44:54 12° E 20:44:54 12° E visible
14 Jun 1.5 22:21:58 10° N 22:27:44 83° WNW 22:28:15 74° SW visible
15 Jun 3.8 00:07:18 10° NW 00:09:04 11° WNW 00:10:51 10° WNW visible
15 Jun 3.6 20:48:50 10° NE 20:51:57 15° E 20:51:57 15° E visible
15 Jun 1.6 22:28:57 10° N 22:34:41 71° WNW 22:35:19 65° WSW visible
16 Jun 3.4 20:55:15 10° NE 20:59:00 18° E 20:59:00 18° E visible
16 Jun 1.8 22:35:55 10° N 22:41:37 61° WNW 22:42:22 56° WSW visible
17 Jun 3.2 21:01:47 10° NE 21:06:02 21° E 21:06:02 21° E visible
17 Jun 2.0 22:42:54 10° N 22:48:31 53° WNW 22:49:24 48° WSW visible
18 Jun 3.0 21:08:23 10° NE 21:13:03 24° E 21:13:03 24° E visible
18 Jun 2.2 22:49:55 10° N 22:55:24 45° WNW 22:56:25 41° W visible
19 Jun 2.8 21:15:03 10° NE 21:20:02 28° E 21:20:03 28° E visible
19 Jun 2.4 22:56:55 10° N 23:02:15 39° WNW 23:03:25 36° W visible
20 Jun 2.6 21:21:44 10° NNE 21:26:58 33° E 21:27:02 33° E visible
20 Jun 2.7 23:03:57 10° N 23:09:05 34° WNW 23:10:24 31° W visible
